Fairbanks Eiels, AK

2:22 AM AKDT on March 25, 2017 (GMT -0800)
Eielson Air Force Base

Weather History for PAEI - July, 2013

Change the Weather History Date:

Sunday, July 7, 2013

  Actual Average Record
Temperature  
Mean Temperature 60 °F -  
Max Temperature 72 °F 69 °F 85 °F (1968)
Min Temperature 46 °F 51 °F 42 °F (2001)
Degree Days  
Heating Degree Days 6    
Growing Degree Days 10 (Base 50)    
Moisture  
Dew Point 42 °F    
Average Humidity 54    
Maximum Humidity 80    
Minimum Humidity 29    
Precipitation  
Precipitation 0.00 in - - ()
Sea Level Pressure  
Sea Level Pressure 29.62 in    
Wind  
Wind Speed 5 mph (South)    
Max Wind Speed 22 mph    
Max Gust Speed 26 mph    
Visibility 5 miles    
Events      
Averages and records for this station are not official NWS values.
T = Trace of Precipitation, MM = Missing Value Source: NWS Daily Summary

Daily Weather History Graph

Daily Weather History Graph

Search for Another Location

Airport or City:

Trip Planner

Search our weather history database for the weather conditions in past years. The results will help you decide how hot, cold, wet, or windy it might be!

Date:

Astronomy

Jul. 07, 2013 Rise Set
Actual Time 3:29 AM AKDT 12:15 AM AKDT
Civil Twilight Sun does not rise Sun does not rise
Nautical Twilight Sun does not rise Sun does not rise
Astronomical Twilight Sun does not rise Sun does not rise
Moon 4:05 AM AKDT (7/7) 10:43 PM AKDT (7/7)
Length of Visible Light 24h 00m
Length of Day
20h 45m
Waning Crescent, 0% of the Moon is Illuminated
Jul 7
Waning Crescent
Jul 7
New
Jul 15
First Quarter
Jul 22
Full
Jul 29
Last Quarter

Hourly Weather History & Observations

Time (AKDT) Temp. Windchill Dew Point Humidity Pressure Visibility Wind Dir Wind Speed Gust Speed Precip Events Conditions
12:55 AM 54.7 °F - 43.9 °F 67% 29.72 in 10.0 mi Calm Calm - N/A   Clear
1:45 AM 50.0 °F - 41.0 °F 71% 29.72 in 4.0 mi Variable 6.9 mph - N/A   Haze
1:55 AM 52.0 °F - 41.5 °F 68% 29.72 in 1.8 mi Variable 4.6 mph - N/A   Haze
2:05 AM 53.6 °F - 41.0 °F 62% 29.72 in 1.2 mi South 6.9 mph - N/A   Haze
2:24 AM 51.8 °F - 41.0 °F 67% 29.72 in 1.0 mi Calm Calm - N/A   Haze
2:28 AM 51.8 °F - 41.0 °F 67% 29.72 in 1.2 mi Variable 3.5 mph - N/A   Haze
2:40 AM 51.8 °F - 41.0 °F 67% 29.71 in 2.0 mi Variable 5.8 mph - N/A   Haze
2:55 AM 51.3 °F - 41.0 °F 68% 29.71 in 2.0 mi Variable 5.8 mph - N/A   Haze
3:55 AM 47.5 °F - 40.6 °F 77% 29.70 in 2.0 mi SE 3.5 mph - N/A   Haze
4:14 AM 48.2 °F - 41.0 °F 76% 29.69 in 2.5 mi Calm Calm - N/A   Haze
4:21 AM 48.2 °F - 41.0 °F 76% 29.69 in 2.0 mi Calm Calm - N/A   Haze
4:55 AM 47.1 °F - 41.4 °F 80% 29.68 in 2.0 mi Calm Calm - N/A   Haze
5:08 AM 46.4 °F 45.2 °F 39.2 °F 76% 29.69 in 1.8 mi Variable 3.5 mph - N/A   Haze
5:55 AM 48.0 °F - 41.5 °F 78% 29.68 in 2.0 mi Calm Calm - N/A   Haze
6:40 AM 50.0 °F - 42.8 °F 76% 29.67 in 2.5 mi Calm Calm - N/A   Haze
6:55 AM 50.9 °F - 43.2 °F 75% 29.66 in 2.5 mi Calm Calm - N/A   Haze
6:59 AM 51.8 °F - 42.8 °F 71% 29.66 in 3.0 mi Calm Calm - N/A   Haze
7:30 AM 57.2 °F - 44.6 °F 63% 29.64 in 2.0 mi North 6.9 mph - N/A   Haze
7:48 AM 59.0 °F - 44.6 °F 59% 29.64 in 2.5 mi North 5.8 mph - N/A   Smoke
7:55 AM 61.2 °F - 43.5 °F 52% 29.63 in 2.5 mi North 6.9 mph - N/A   Smoke
8:08 AM 62.6 °F - 41.0 °F 45% 29.63 in 7.0 mi SE 15.0 mph 20.7 mph N/A   Smoke
8:22 AM 66.2 °F - 41.0 °F 40% 29.62 in 10.0 mi SE 12.7 mph - N/A   Clear
8:55 AM 65.7 °F - 42.1 °F 42% 29.62 in 10.0 mi Variable 6.9 mph - N/A   Clear
9:55 AM 68.0 °F - 43.3 °F 41% 29.60 in 10.0 mi SSW 5.8 mph - N/A   Clear
10:55 AM 70.5 °F - 39.7 °F 33% 29.59 in 10.0 mi SSE 11.5 mph - N/A   Clear
11:55 AM 70.5 °F - 40.5 °F 34% 29.58 in 10.0 mi SE 18.4 mph - N/A   Clear
12:55 PM 71.2 °F - 41.2 °F 34% 29.57 in 10.0 mi SSE 12.7 mph - N/A   Partly Cloudy
1:55 PM 69.8 °F - 41.2 °F 35% 29.57 in 10.0 mi South 9.2 mph - N/A   Partly Cloudy
2:55 PM 69.4 °F - 40.1 °F 34% 29.56 in 10.0 mi South 19.6 mph - N/A   Partly Cloudy
4:05 PM 73.4 °F - 39.2 °F 29% 29.59 in 10.0 mi SE 20.7 mph 26.5 mph N/A   Clear
4:55 PM 70.7 °F - 40.3 °F 33% 29.53 in 10.0 mi SE 21.9 mph - N/A   Partly Cloudy
5:55 PM 68.7 °F - 41.0 °F 36% 29.52 in 10.0 mi South 15.0 mph - N/A   Clear
6:55 PM 70.0 °F - 41.4 °F 35% 29.51 in 10.0 mi SW 6.9 mph - N/A   Clear
7:55 PM 70.9 °F - 39.6 °F 32% 29.51 in 10.0 mi WNW 6.9 mph - N/A   Clear
8:55 PM 69.6 °F - 40.5 °F 35% 29.51 in 10.0 mi Calm Calm - N/A   Scattered Clouds
9:48 PM 68.0 °F - 42.8 °F 40% 29.51 in 4.0 mi North 3.5 mph - N/A   Haze
9:55 PM 68.9 °F - 42.4 °F 38% 29.51 in 3.0 mi North 3.5 mph - N/A   Haze
10:05 PM 68.0 °F - 42.8 °F 40% 29.51 in 2.5 mi NNW 3.5 mph - N/A   Haze
10:55 PM 62.6 °F - 45.0 °F 52% 29.52 in 2.5 mi West 4.6 mph - N/A   Haze
11:10 PM 62.6 °F - 46.4 °F 55% 29.53 in 2.0 mi West 3.5 mph - N/A   Haze
11:29 PM 62.6 °F - 46.4 °F 55% 29.53 in 2.5 mi WNW 4.6 mph - N/A   Haze
11:36 PM 62.6 °F - 46.4 °F 55% 29.54 in 3.0 mi Calm Calm - N/A   Haze
11:50 PM 62.6 °F - 44.6 °F 52% 29.54 in 5.0 mi West 6.9 mph - N/A   Haze